User: anonymous   Login
Location: Chervonnoye
(48.6000°N, 34.4000°E)
Time: 20:50:36
(UTC+00:00)
Language:

XW-2F - Orbit

View from above orbital plane
View from above orbital plane
View from above satellite
View from above satellite

Ground track
Ground track

The orbit data is extracted from the following two-line orbital elements,

1 40910U 15049M   21335.53156500  .00003443  00000-0  16331-3 0  9993
2 40910  97.4752 339.0667 0012721 313.2429 165.2549 15.19888371343093
Epoch (UTC): 01 December 2021 12:45:27
Eccentricity: 0.0012721
inclination: 97.4752°
perigee height: 497 km
apogee height: 515 km
right ascension of ascending node: 339.0667°
argument of perigee: 313.2429°
revolutions per day: 15.19888371
mean anomaly at epoch: 165.2549°
orbit number at epoch: 34309

The dashed part of the orbit path shows where the satellite is in the earth's shadow,  

DLR